This is the latest recevied weather packets stored in our database for station/object WX5KDM. If no packets are shown the sender has not sent any weather packets the latest 10 day(s).
| Time | Temp. | Humidity | Pressure | Rain* | Wind** | Luminosity | Snow |
|---|---|---|---|---|---|---|---|
| 1788489869 | 26.67° C | 89% | 1015.8 hPa | 0 mm | - | - | - |
| 1788489565 | 26.67° C | 88% | 1015.5 hPa | 0 mm | - | - | - |
| 1788489261 | 26.67° C | 86% | 1015.7 hPa | 0 mm | - | - | - |
| 1788488960 | 27.22° C | 86% | 1015.8 hPa | 0 mm | - | - | - |
| 1788488657 | 27.22° C | 85% | 1015.7 hPa | 0 mm | - | - | - |
| 1788488353 | 27.22° C | 83% | 1015.6 hPa | 0 mm | - | - | - |
| 1788488048 | 27.78° C | 82% | 1015.6 hPa | 0 mm | - | - | - |
| 1788487748 | 27.78° C | 81% | 1015.4 hPa | 0 mm | - | - | - |
| 1788487439 | 27.78° C | 78% | 1015.5 hPa | 0 mm | - | - | - |
| 1788487137 | 28.33° C | 77% | 1015.4 hPa | 0 mm | - | - | - |
| 1788486833 | 28.33° C | 77% | 1015.6 hPa | 0 mm | - | - | - |
| 1788486532 | 28.33° C | 76% | 1015.4 hPa | 0 mm | - | - | - |
| 1788486232 | 28.89° C | 76% | 1015.2 hPa | 0 mm | - | - | - |
| 1788485942 | 29.44° C | 73% | 1015.1 hPa | 0 mm | - | - | - |
| 1788485624 | 30° C | 70% | 1015.1 hPa | 0 mm | - | - | - |
| 1788485319 | 29.44° C | 70% | 1015 hPa | 0 mm | - | - | - |
| 1788485014 | 29.44° C | 70% | 1015.1 hPa | 0 mm | - | - | - |
| 1788484713 | 29.44° C | 70% | 1015.1 hPa | 0 mm | - | - | - |
| 1788484403 | 29.44° C | 71% | 1015 hPa | 0 mm | - | - | - |
| 1788484103 | 29.44° C | 71% | 1015.1 hPa | 0 mm | - | - | - |
| 1788483801 | 28.33° C | 72% | 1015.2 hPa | 0 mm | - | - | - |
| 1788483501 | 28.33° C | 75% | 1015 hPa | 0 mm | - | - | - |
| 1788483197 | 27.78° C | 76% | 1014.8 hPa | 0 mm | - | - | - |
| 1788482891 | 28.33° C | 77% | 1014.7 hPa | 0 mm | - | - | - |
| 1788482588 | 28.33° C | 77% | 1014.7 hPa | 0 mm | - | - | - |
* Rain latest hour (hover to see other rain measurements)
** Current wind speed in m/s (hover to see current wind gust speed)